COSMOS 1927

Satellite information

Favourite Embed

Satellite Type and Status

PAYLOADIN ORBIT

Key statistics

Satellite COSMOS 1927 at a glance.

Uptime

13797

Days in orbit

Revolutions

≈ 12.5

Per day

Orbit

LEO

Low Earth Orbit

Inclination

74.0

Latest

Satellite identification and parameters

Extended collection of information and parameters for COSMOS 1927.

Object identification

Identified? True

Debris? False

Object name: COSMOS 1927

International designator: 1988-016D

Object number (NORAD): 18940

Object ID (CCSDS): 18940

Country: COMMONWEALTH OF INDEPENDENT STATES (CIS)

Current information (Y/N): Y

RCS size: MEDIUM

Orbital parameters

Period: 115.116 minutes

Inclination: 74.003 deg

SMA: 7838.797 km

Apoapsis: 1466.308 km

Periapsis: 1455.016 km

RAAN: 151.9065 deg

Eccentricy: 0.00072026

Argument of periapsis: 145.5958 deg

Mean anomaly: 328.035 deg

Mean motion: 12.50917476 rev/day

Mean motion (dot): -0.0000002 rev/day2

B* drag term: -0.000023239251 1/REarth

Two-line elements (TLE)

Creation date: Dec. 19, 2025, 2:08 a.m.

Reference frame: TEME

Reference center: EARTH

Epoch: Dec. 18, 2025, 10 p.m. UTC

TLE line 0: 0 COSMOS 1927

TLE line 1: 1 18940U 88016D 25352.91726178 -.00000020 00000-0 -23239-4 0 9990

TLE line 2: 2 18940 74.0030 151.9065 0007203 145.5958 328.0350 12.50917476724987

Live tracking on map

Real-time ground track for satellite COSMOS 1927.

In-orbit conjunctions

A list of the most updated potential collisions computed for object COSMOS 1927.

Target Orbit TCA Probability of collision Miss distance Type
DELTA 1 DEB SSO 2025-05-21 20:02:15 0.001054372 274.0 (m) DEBRIS

Associated space launch

Military communications satellites

COSMOS 1927 was lifted into orbit during the mission ‘Kosmos-3M | Strela-1M 329-336’, on board a Kosmos-3M space rocket.

The launch took place on March 11, 1988, 12:18 a.m. from 132/1 (132L).

For more information about the launch, click the button.

Launch to space Kosmos-3M | Strela-1M 329-336
Kosmos-3M | Strela-1M 329-336

Agency: N/A

Status: Launch Successful

Launch date: March 11, 1988, 12:18 a.m. UTC

Rocket: Kosmos-3M

Launch pad: 132/1 (132L)

Location: Plesetsk Cosmodrome, Russian Federation

...

Latest news about this satellite

There are no fresh news available about this satellite. Check back as we update our databases every day.


Newsletter sign-up

Weekly statistics, charts and insights to help you stay on top of the space industry.